Weather History for KOTM - October, 2014

Change the Weather History Date:

Thursday, October 2, 2014

  Actual Average Record
Temperature  
Mean Temperature 61 °F 57 °F  
Max Temperature 66 °F 69 °F 93 °F (1953)
Min Temperature 55 °F 46 °F 22 °F (2003)
Degree Days  
Heating Degree Days 4 8  
Month to date heating degree days 7 16  
Since 1 July heating degree days 141 137  
Cooling Degree Days 0 1  
Month to date cooling degree days 0 2  
Year to date cooling degree days 800 929  
Growing Degree Days 12 (Base 50)    
Moisture  
Dew Point 61 °F    
Average Humidity 93    
Maximum Humidity 100    
Minimum Humidity 86    
Precipitation  
Precipitation 0.82 in 0.10 in 1.64 in (1944)
Month to date precipitation 0.98 0.20  
Year to date precipitation 36.11 30.69  
Sea Level Pressure  
Sea Level Pressure 29.75 in    
Wind  
Wind Speed 8 mph (South)    
Max Wind Speed 23 mph    
Max Gust Speed 30 mph    
Visibility 5 miles    
Events Fog , Rain , Thunderstorm    
T = Trace of Precipitation, MM = Missing Value Source: NWS Daily Summary

Daily Weather History Graph

Daily Weather History Graph

Search for Another Location

Airport or City:

Trip Planner

Search our weather history database for the weather conditions in past years. The results will help you decide how hot, cold, wet, or windy it might be!

Date:

Astronomy

Oct. 02, 2014 Rise Set
Actual Time 7:07 AM CDT 6:50 PM CDT
Civil Twilight 6:40 AM CDT 7:17 PM CDT
Nautical Twilight 6:08 AM CDT 7:49 PM CDT
Astronomical Twilight 5:35 AM CDT 8:21 PM CDT
Moon 2:59 PM CDT (10/2) 12:21 AM CDT (10/2)
Length of Visible Light 12h 37m
Length of Day
11h 42m
First Quarter, 60% of the Moon is Illuminated
Oct 2
First Quarter
Oct 8
Full
Oct 15
Last Quarter
Oct 23
New
Oct 30
First Quarter

Hourly Weather History & Observations

Time (CDT) Temp. Dew Point Humidity Pressure Visibility Wind Dir Wind Speed Gust Speed Precip Events Conditions
12:00 AM 63.0 °F 62.1 °F 97% 29.81 in 2.5 mi East 4.6 mph - N/A   Clear
12:07 AM 63.0 °F 62.1 °F 97% 29.79 in 2.0 mi East 5.8 mph - N/A   Scattered Clouds
12:11 AM 63.0 °F 62.1 °F 97% 29.79 in 2.0 mi East 5.8 mph - N/A   Mostly Cloudy
12:22 AM 63.0 °F 62.1 °F 97% 29.80 in 1.5 mi ESE 4.6 mph - N/A   Mostly Cloudy
12:32 AM 63.0 °F 62.1 °F 97% 29.79 in 0.8 mi East 6.9 mph - N/A   Mist
12:50 AM 62.6 °F 62.6 °F 100% 29.80 in 1.5 mi ESE 4.6 mph - N/A   Overcast
12:53 AM 63.0 °F 62.1 °F 97% 29.80 in 1.5 mi ESE 4.6 mph - N/A   Overcast
1:14 AM 63.0 °F 62.1 °F 97% 29.80 in 1.2 mi ESE 3.5 mph - N/A   Overcast
1:28 AM 63.0 °F 62.1 °F 97% 29.80 in 0.5 mi Calm Calm - N/A Fog Fog
1:37 AM 62.1 °F 62.1 °F 100% 29.80 in 0.2 mi ESE 3.5 mph - N/A Fog Fog
1:53 AM 63.0 °F 62.1 °F 97% 29.80 in 0.2 mi East 4.6 mph - N/A Fog Fog
2:53 AM 62.1 °F 62.1 °F 100% 29.77 in 0.2 mi ENE 6.9 mph - N/A Fog Fog
3:53 AM 63.0 °F 62.1 °F 97% 29.79 in 0.2 mi East 4.6 mph - N/A Fog Fog
4:53 AM 62.1 °F 62.1 °F 100% 29.78 in 0.2 mi ESE 5.8 mph - N/A Fog Fog
5:53 AM 62.1 °F 62.1 °F 100% 29.79 in 0.2 mi SE 5.8 mph - N/A Fog Fog
6:53 AM 63.0 °F 62.1 °F 97% 29.78 in 0.2 mi ESE 5.8 mph - N/A Fog Fog
7:53 AM 63.0 °F 63.0 °F 100% 29.79 in 0.2 mi SSE 5.8 mph - N/A Fog Fog
8:20 AM 64.0 °F 63.0 °F 96% 29.83 in 1.0 mi South 9.2 mph - N/A   Overcast
8:53 AM 64.0 °F 63.0 °F 96% 29.80 in 3.0 mi SSE 5.8 mph - N/A   Overcast
9:08 AM 64.0 °F 63.0 °F 96% 29.80 in 4.0 mi SSE 5.8 mph - N/A   Overcast
9:17 AM 64.0 °F 63.0 °F 96% 29.78 in 5.0 mi South 5.8 mph - N/A   Overcast
9:53 AM 64.0 °F 63.0 °F 96% 29.77 in 7.0 mi SSE 5.8 mph - N/A   Overcast
10:28 AM 66.0 °F 63.0 °F 90% 29.76 in 10.0 mi SSE 9.2 mph - N/A   Overcast
10:53 AM 66.0 °F 63.0 °F 90% 29.77 in 10.0 mi SSE 8.1 mph - N/A   Overcast
11:14 AM 66.0 °F 63.0 °F 90% 29.77 in 10.0 mi SSE 11.5 mph - N/A Thunderstorm Overcast
11:30 AM 64.9 °F 62.1 °F 90% 29.77 in 4.0 mi South 9.2 mph - 0.02 in Rain , Thunderstorm Light Thunderstorms and Rain
11:46 AM 64.9 °F 63.0 °F 93% 29.76 in 7.0 mi South 5.8 mph - 0.04 in Rain , Thunderstorm Light Rain
11:53 AM 64.9 °F 63.0 °F 93% 29.75 in 8.0 mi South 5.8 mph - 0.04 in Rain , Thunderstorm Light Rain
12:09 PM 64.9 °F 63.0 °F 93% 29.75 in 9.0 mi Calm Calm - 0.01 in Rain Light Rain
12:35 PM 64.9 °F 63.0 °F 93% 29.77 in 10.0 mi South 3.5 mph - 0.02 in Thunderstorm Thunderstorm
12:39 PM 64.9 °F 63.0 °F 93% 29.77 in 2.0 mi SW 4.6 mph - 0.09 in Rain , Thunderstorm Light Thunderstorms and Rain
12:45 PM 64.0 °F 63.0 °F 96% 29.76 in 0.8 mi West 6.9 mph - 0.21 in Rain , Thunderstorm Heavy Thunderstorms and Rain
12:53 PM 64.0 °F 63.0 °F 96% 29.77 in 0.5 mi West 5.8 mph - 0.33 in Fog , Rain Heavy Rain
1:04 PM 64.9 °F 63.0 °F 93% 29.76 in 2.0 mi South 6.9 mph - 0.02 in Rain Light Rain
1:06 PM 64.9 °F 63.0 °F 93% 29.77 in 2.5 mi South 6.9 mph - 0.03 in Rain , Thunderstorm Light Rain
1:15 PM 64.9 °F 63.0 °F 93% 29.76 in 3.0 mi South 8.1 mph - 0.04 in Rain , Thunderstorm Light Rain
1:21 PM 64.9 °F 63.0 °F 93% 29.76 in 4.0 mi South 8.1 mph - 0.04 in Rain Light Rain
1:28 PM 64.9 °F 63.0 °F 93% 29.77 in 4.0 mi SSW 10.4 mph - 0.06 in Rain Rain
1:53 PM 64.9 °F 63.0 °F 93% 29.73 in 4.0 mi SSW 5.8 mph - 0.09 in Rain Light Rain
2:03 PM 64.9 °F 63.0 °F 93% 29.73 in 4.0 mi SSE 9.2 mph - 0.03 in Rain , Thunderstorm Rain
2:10 PM 64.9 °F 63.0 °F 93% 29.72 in 5.0 mi South 12.7 mph - 0.03 in Rain , Thunderstorm Light Rain
2:18 PM 64.0 °F 61.0 °F 90% 29.70 in 6.0 mi South 9.2 mph - 0.05 in Rain Light Rain
2:53 PM 64.0 °F 61.0 °F 90% 29.72 in 7.0 mi SSW 10.4 mph 20.7 mph 0.10 in Rain Rain
3:53 PM 64.0 °F 61.0 °F 90% 29.69 in 10.0 mi West 6.9 mph - 0.08 in Rain Light Rain
4:05 PM 64.9 °F 62.1 °F 90% 29.69 in 10.0 mi WNW 5.8 mph - 0.00 in   Overcast
4:27 PM 64.9 °F 62.1 °F 90% 29.69 in 10.0 mi SW 5.8 mph - 0.00 in   Mostly Cloudy
4:38 PM 64.9 °F 62.1 °F 90% 29.69 in 10.0 mi SSW 6.9 mph - 0.00 in   Scattered Clouds
4:53 PM 64.9 °F 63.0 °F 93% 29.68 in 10.0 mi SSW 5.8 mph - 0.00 in   Clear
5:53 PM 64.9 °F 63.0 °F 93% 29.69 in 10.0 mi South 6.9 mph - N/A   Mostly Cloudy
6:53 PM 64.9 °F 63.0 °F 93% 29.68 in 10.0 mi West 3.5 mph - N/A   Overcast
7:53 PM 64.9 °F 63.0 °F 93% 29.68 in 10.0 mi West 8.1 mph - N/A   Overcast
8:20 PM 64.0 °F 62.1 °F 93% 29.69 in 1.8 mi WSW 5.8 mph - 0.10 in Rain Heavy Rain
8:37 PM 61.0 °F 59.0 °F 93% 29.70 in 3.0 mi NW 19.6 mph 27.6 mph 0.18 in Rain Light Rain
8:53 PM 60.1 °F 57.9 °F 93% 29.69 in 10.0 mi NNW 17.3 mph - 0.18 in   Overcast
8:55 PM 60.1 °F 57.9 °F 93% 29.70 in 10.0 mi NNW 17.3 mph - N/A   Overcast
9:25 PM 57.9 °F 55.9 °F 93% 29.70 in 10.0 mi NNW 17.3 mph 24.2 mph 0.00 in   Overcast
9:44 PM 57.9 °F 55.9 °F 93% 29.70 in 10.0 mi NNW 15.0 mph - 0.00 in   Overcast
9:53 PM 57.9 °F 55.0 °F 90% 29.70 in 10.0 mi NNW 13.8 mph - 0.00 in   Overcast
10:06 PM 57.0 °F 55.0 °F 93% 29.70 in 10.0 mi North 15.0 mph - N/A   Overcast
10:53 PM 57.0 °F 54.0 °F 89% 29.70 in 10.0 mi NNW 16.1 mph - N/A   Overcast
11:12 PM 57.0 °F 54.0 °F 89% 29.70 in 10.0 mi NW 16.1 mph - N/A   Overcast
11:53 PM 57.0 °F 54.0 °F 89% 29.71 in 10.0 mi NW 13.8 mph 23.0 mph N/A   Overcast